Погода в Корякове

Россия / Калужская область     55°14′56″N   36°40′41″E
темп.,
°C
ветер,
м/с
пор.,
м/с
влажн.,
%
обл.,
%
осадки,
мм/ч
давл.,
гПа
погр.,
м
14 июня, пн
пн1400:00+14ююв229511 0.0 101023
03:00+13ююв129672 0.0 101113
06:00+15ю12927 0.0 101288
09:00+21ююз227046 0.0 1013578
12:00+24зюз235423 0.1 10141482
15:00+26юз334939 0.1 10141732
18:00+23зсз3466100 0.1 1014307
21:00+19з118091 0.4 101411
15 июня, вт
вт1500:00+16сз11905 0.0 101511
03:00+15ссв11945 0.0 101411
06:00+17с00885 0.0 101447
09:00+23сз11665 0.0 1014530
12:00+25зюз115964 0.4 10121199
15:00+26з225474 1.1 10111428
18:00+23ссз238012 1.4 1010141
21:00+18сз228993 3.8 101025
16 июня, ср
ср1600:00+16ссз269630 0.1 1010114
03:00+14ссз37953 0.1 1011126
06:00+15ссз399424 0.0 1012268
09:00+19с4772100 0.0 1013581
12:00+23ссз465419 0.0 10141642
15:00+24ссз56442 0.0 10142197
18:00+21с46509 0.0 10161234
21:00+15ссз3671100 0.0 101899
17 июня, чт
чт1700:00+12ссв23785 0.0 102048
03:00+11ссв23821 0.0 102242
06:00+13ссв13760 0.0 102392
09:00+19ссв23490 0.0 1024660
12:00+22ссв23380 0.0 10241815
15:00+24с23370 0.0 10242064
18:00+23ссв22500 0.0 10241777
21:00+16с12765 0.0 102512
18 июня, пт
пт1800:00+14юв01815 0.0 102610
03:00+13ююз00865 0.0 102710
06:00+16з11790 0.0 102741
09:00+22з11570 0.0 1027480
12:00+25зюз11445 0.0 10271601
15:00+26зюз22437 0.0 10261787
18:00+24зюз23565 0.0 1026548
21:00+18юз227895 0.0 102635